Location: Newark
(45.0667°N, 7.8333°E)
Time: 11:03:49
(UTC+00:00)

STRAND 1 - Visible Passes

Search period start: 20 October 2019 00:00
Search period end: 30 October 2019 00:00
Orbit: 769 x 780 km, 98.5° (Epoch: 20 October)

Date Brightness Start Highest point End Pass type
(mag) Time Alt. Az. Time Alt. Az. Time Alt. Az.
20 Oct ? 04:49:37 10° ESE 04:53:25 21° ENE 04:57:14 10° NNE visible
20 Oct ? 20:15:03 10° N 20:15:47 13° NNW 20:15:47 13° NNW visible
21 Oct ? 04:18:17 10° ENE 04:19:55 11° NE 04:21:32 10° NE visible
21 Oct ? 19:40:36 10° N 19:40:56 12° N 19:40:56 12° N visible
22 Oct ? 05:19:38 10° SE 05:24:20 37° ENE 05:29:04 10° N visible
23 Oct ? 04:46:58 10° ESE 04:50:39 20° ENE 04:54:22 10° NNE visible
24 Oct ? 04:15:53 10° ENE 04:17:10 11° NE 04:18:25 10° NE visible
25 Oct ? 05:16:54 10° SE 05:21:32 35° ENE 05:26:13 10° N visible
26 Oct ? 04:44:18 10° ESE 04:47:53 19° ENE 04:51:28 10° NNE visible
27 Oct ? 04:13:41 10° ENE 04:14:24 10° NE 04:15:06 10° NE visible
28 Oct ? 05:14:10 10° SE 05:18:46 34° ENE 05:23:23 10° N visible
29 Oct ? 04:41:39 10° ESE 04:45:07 18° ENE 04:48:35 10° NNE visible
